Showing default

GLOBALSTAR M092, 38043

Orbit data source: Space-Track

GLOBALSTAR M092, 38043 is a payload satellite owned by Globalstar (US) in LEO that was launched on Wed, 28 Dec 2011 UTC via a SOYUZ-2-1A launch vehicle from the Tyuratam Missile And Space Complex (TTMTR). Payload-class satellites include a variety of spacecraft equipped with specific instruments for various scientific and technological missions. These include communications satellites like Starlink; space stations such as the ISS; scientific satellites like the Hubble; Earth observation satellites from companies like Planet Labs, Umbra, and HawkEye 360; GPS; miniature CubeSats for education and research; and military/defense satellites.

Loading next visibility...
Identifier
38043, 2011-080D
Orbit
LEO
Country
Flag of UnknownUnknown / GLOB
Related business
Manufacturer
Thales Alenia
Mission
Operational Commercial Communications
Bus & Motor
PRISMA?, LS-400 AOCS?
Mass
715 kg wet, ~500 kg dry
Launch date (UTC)
2011-12-28 (14 years ago)
Launch vehicle
SOYUZ-2-1A
Launch site
Tyuratam Missile And Space Complex (TTMTR)
Object type
Payload
Rocket body
Debris
Shape & HBR
Trap Cyl + 2 Pan, 6.0 m
Radar Cross Section
20.931 m², Large (>1 m²)

Expand to show TLE details & history
Last TLE update: 20 hours ago

TLE from 20 hours ago
0 GLOBALSTAR M092
1 38043U 11080D   25261.17145009 -.00000108  00000-0 -26114-4 0  9990
2 38043  52.0077 172.8747 0000583  63.5654  84.2151 12.62265897633698
Epoch: 2025-09-18T04:06Z
TLE epoch observation values (Epoch: 2025-09-18T04:06:53.287Z)
Latitude
24.9041°
Longitude
-87.33583°
Altitude
1,414.381 km
Speed
7.156 km/s
True Right ascension
22h 06m 53s
True Declination
24° 47' 03"
Sunlit
Object was in full shadow at epoch
Visualization orbit readout
Latitude
Unknown
Longitude
Unknown
Altitude
Unknown
Speed
Unknown
Apparent Right ascension
Unknown
Apparent Declination
Unknown
Sunlit
N/A
Visualization observer readout
Local Sidereal Time
17:18:23
Azimuth
Unknown
Elevation
Unknown
Doppler factor
Unknown
Orbital elements
Apogee altitude
1,414.451 km
Perigee altitude
1,413.543 km
Semi-major axis
7,792.134 km
Eccentricity
0.00006
Inclination
52.0077°
RAAN
172.8747°
Arg. of periapsis
63.5654°
True anomaly
84.22175°
Mean anomaly
84.2151°
Eccentric anomaly
84.21842°
Mean motion
3.15543 °/min
Orbital period
114.09 mins
BSTAR
-0.000026114
Loading maneuver chart data...
Computing Atmospheric mass density...
Loading historical data...
Loading historical data...
Loading historical data...
Loading historical data...
Loading historical data...
Loading historical data...
Loading historical data...

Documentation

Showing up to 5 results
|